Location: Austin
(30.3000°N, 97.7500°W)
Time: 06:19:39
(UTC-05:00)

Cosmos 1892 Rocket - Pass Details

Date: 16 June 2025
Orbit: 599 x 628 km, 82.5° (Epoch: 07 July)

Event Time Altitude Azimuth Distance (km) Brightness Sun altitude
Exits shadow 05:42:12 - 208° (SSW) 2,066 5.7 -9.5°
Reaches altitude 10° 05:42:24 10° 209° (SSW) 1,992 5.6 -9.4°
Maximum altitude 05:46:33 39° 279° (W) 930 4.1 -8.7°
Drops below altitude 10° 05:50:42 10° 349° (N) 1,992 6.5 -8.0°
Sets 05:53:03 0° 357° (N) 2,897 7.4 -7.5°
